Погода в Мигулинской

Россия / Ростовская область     49°41′39″N   41°15′51″E
В апреле 2022 года жителям России запретили посещать сайт meteo.paraplan.net по решению Генеральной прокуратуры. Аудитория сайта уменьшилась в 10 раз. Владельцы сайта не видят смысла в поддержке погодного сервера в таких условиях. Сайт будет закрыт в октябре.
темп.,
°C
ветер,
м/с
пор.,
м/с
влажн.,
%
обл.,
%
осадки,
мм/ч
давл.,
гПа
погр.,
м
3 октября, пн
пн300:00+21ююв91847100 0.0 1001756
03:00+19ююв101852100 0.0 1000951
06:00+15юз81190100 3.6 1000920
09:00+14юз61073100 8.2 10051154
12:00+15зюз8105359 0.1 10081523
15:00+16юз794998 0.1 10111823
18:00+13юз365910 0.0 1012138
21:00+12ю346567 0.0 101455
4 октября, вт
вт400:00+13ююв3860100 0.0 1014251
03:00+12ю3872100 0.0 1015191
06:00+11ююв3773100 0.0 1015171
09:00+15ю5859100 0.0 1016472
12:00+18ю574799 0.0 10161152
15:00+18ю5748100 0.0 10161632
18:00+17ю41054100 0.0 1017321
21:00+14ююв51179100 0.5 1018400
5 октября, ср
ср500:00+13ю410825 0.1 1018245
03:00+11ююз38885 0.1 1019160
06:00+10зюз22845 0.0 102022
09:00+13з3558100 0.0 1021440
12:00+16зюз574288 0.0 10211377
15:00+17зюз68405 0.0 10201731
18:00+13зюз35545 0.0 102188
21:00+12з376115 0.0 1022198
6 октября, чт
чт600:00+10зсз368297 0.1 1022144
03:00+8з38835 0.1 1023250
06:00+7з358898 0.0 1024128
09:00+11зсз57695 0.0 1024557
12:00+14зсз6857100 0.0 10231304
15:00+14зсз576033 0.0 10231102
18:00+12зюз236935 0.0 102434
21:00+13юз3564100 0.0 1024129
7 октября, пт
пт700:00+12зюз36695 0.0 1024108
03:00+10юз410756 0.0 1023208
06:00+10зюз38795 0.0 1023176
09:00+14з58655 0.0 1023448
12:00+18з57530 0.0 10231071
15:00+19зсз565219 0.0 10221312
18:00+17ссз466086 0.0 1024228
21:00+13ссз34760 0.0 102550